{"data":{"norad_id":69040,"epoch":"2026-05-25T03:19:53.442336Z","epoch_age_seconds":58944,"freshness":"FRESH","line1":"1 69040U 26101R   26145.13881299  .00096557  00000+0  64023-3 0  9997","line2":"2 69040  97.2846 359.9112 0001295  94.7387 265.4026 15.75215469  3016","mean_motion":15.75215469,"eccentricity":0.0001295,"inclination_deg":97.2846,"raan_deg":359.9112,"arg_perigee_deg":94.7387,"mean_anomaly_deg":265.4026,"bstar":0.00064023,"rev_number":301,"period_min":91.416065188476,"perigee_km":343.14759014669,"apogee_km":344.88862831998,"semimajor_km":6722.1551092333,"source":"CELESTRAK","updated_at":"2026-05-25T13:38:22.082482Z"}}